Time,TemperatureF,DewpointF,PressureIn,WindDirection,WindDirectionDegrees,WindSpeedMPH,WindSpeedGustMPH,Humidity,HourlyPrecipIn,Conditions,Clouds,dailyrainin,SoftwareType,DateUTC
2013-03-26 00:00:00,58.3,21.7,30.12,WSW,248,3.6,6.7,24,0.00,,,0.00,VWS V14.01,2013-03-26 04:00:00,
2013-03-26 00:01:00,58.3,21.7,30.12,WNW,292,5.8,5.8,24,0.00,,,0.00,VWS V14.01,2013-03-26 04:01:00,
2013-03-26 00:06:00,58.3,21.7,30.12,WNW,292,2.7,3.4,24,0.00,,,0.00,VWS V14.01,2013-03-26 04:06:00,
2013-03-26 00:11:00,58.1,19.5,30.12,WNW,292,5.4,5.8,22,0.00,,,0.00,VWS V14.01,2013-03-26 04:11:00,
2013-03-26 00:16:00,58.1,21.5,30.09,WNW,292,3.4,5.8,24,0.00,,,0.00,VWS V14.01,2013-03-26 04:16:00,
2013-03-26 00:21:00,58.1,21.5,30.09,WNW,292,5.8,5.8,24,0.00,,,0.00,VWS V14.01,2013-03-26 04:21:00,
2013-03-26 00:26:00,58.1,21.5,30.09,West,270,6.9,6.9,24,0.00,,,0.00,VWS V14.01,2013-03-26 04:26:00,
2013-03-26 00:31:00,58.1,19.5,30.09,NNE,22,6.0,6.0,22,0.00,,,0.00,VWS V14.01,2013-03-26 04:31:00,
2013-03-26 00:37:00,58.1,19.5,30.09,WSW,248,6.0,6.5,22,0.00,,,0.00,VWS V14.01,2013-03-26 04:37:00,
2013-03-26 00:42:00,58.1,16.1,30.06,WNW,292,4.0,4.9,19,0.00,,,0.00,VWS V14.01,2013-03-26 04:42:00,
2013-03-26 00:47:00,58.1,16.1,30.06,WSW,248,5.6,5.6,19,0.00,,,0.00,VWS V14.01,2013-03-26 04:47:00,
2013-03-26 00:52:00,58.3,16.2,30.06,WSW,248,3.8,3.8,19,0.00,,,0.00,VWS V14.01,2013-03-26 04:52:00,
2013-03-26 00:57:00,58.3,16.2,30.06,West,270,3.4,5.8,19,0.00,,,0.00,VWS V14.01,2013-03-26 04:57:00,
2013-03-26 01:02:00,58.5,16.4,30.09,WNW,292,4.0,4.7,19,0.00,,,0.00,VWS V14.01,2013-03-26 05:02:00,
2013-03-26 01:07:00,58.5,16.4,30.09,West,270,5.4,5.4,19,0.00,,,0.00,VWS V14.01,2013-03-26 05:07:00,
2013-03-26 01:12:00,58.6,16.5,30.09,WNW,292,3.8,5.6,19,0.00,,,0.00,VWS V14.01,2013-03-26 05:12:00,
2013-03-26 01:17:00,59.0,16.8,30.09,WNW,292,6.3,6.3,19,0.00,,,0.00,VWS V14.01,2013-03-26 05:17:00,
2013-03-26 01:22:00,59.0,16.8,30.09,West,270,4.7,4.7,19,0.00,,,0.00,VWS V14.01,2013-03-26 05:22:00,
2013-03-26 01:27:00,59.0,14.3,30.06,WNW,292,4.9,7.4,17,0.00,,,0.00,VWS V14.01,2013-03-26 05:27:00,
2013-03-26 01:32:00,58.8,14.1,30.06,WNW,292,3.1,3.1,17,0.00,,,0.00,VWS V14.01,2013-03-26 05:32:00,
2013-03-26 01:37:00,58.8,14.1,30.06,West,270,5.6,5.6,17,0.00,,,0.00,VWS V14.01,2013-03-26 05:37:00,
2013-03-26 01:42:00,58.8,14.1,30.09,WNW,292,8.1,8.1,17,0.00,,,0.00,VWS V14.01,2013-03-26 05:42:00,
2013-03-26 01:47:00,58.8,14.1,30.09,West,270,4.0,5.4,17,0.00,,,0.00,VWS V14.01,2013-03-26 05:47:00,
2013-03-26 01:52:00,58.8,14.1,30.09,SW,225,3.8,3.8,17,0.00,,,0.00,VWS V14.01,2013-03-26 05:52:00,
2013-03-26 01:57:00,58.6,14.0,30.06,North,0,5.4,5.4,17,0.00,,,0.00,VWS V14.01,2013-03-26 05:57:00,
2013-03-26 02:02:00,58.6,14.0,30.06,WSW,248,5.4,7.4,17,0.00,,,0.00,VWS V14.01,2013-03-26 06:02:00,
2013-03-26 02:07:00,58.6,14.0,30.06,West,270,5.6,5.6,17,0.00,,,0.00,VWS V14.01,2013-03-26 06:07:00,
2013-03-26 02:12:00,58.8,14.1,30.09,West,270,5.4,6.3,17,0.00,,,0.00,VWS V14.01,2013-03-26 06:12:00,
2013-03-26 02:17:00,58.8,14.1,30.09,West,270,2.7,3.4,17,0.00,,,0.00,VWS V14.01,2013-03-26 06:17:00,
2013-03-26 02:22:00,58.6,14.0,30.09,West,270,3.8,4.7,17,0.00,,,0.00,VWS V14.01,2013-03-26 06:22:00,
2013-03-26 02:27:00,58.6,14.0,30.09,NNE,22,3.8,5.4,17,0.00,,,0.00,VWS V14.01,2013-03-26 06:27:00,
2013-03-26 02:32:00,58.5,13.8,30.09,West,270,4.3,7.2,17,0.00,,,0.00,VWS V14.01,2013-03-26 06:32:00,
2013-03-26 02:37:00,58.8,14.1,30.09,West,270,4.0,6.5,17,0.00,,,0.00,VWS V14.01,2013-03-26 06:37:00,
2013-03-26 02:42:00,58.8,14.1,30.09,NNW,338,5.4,6.5,17,0.00,,,0.00,VWS V14.01,2013-03-26 06:42:00,
2013-03-26 02:47:00,58.6,14.0,30.09,WSW,248,3.1,4.7,17,0.00,,,0.00,VWS V14.01,2013-03-26 06:47:00,
2013-03-26 02:52:00,58.5,13.8,30.09,NNW,338,4.0,4.0,17,0.00,,,0.00,VWS V14.01,2013-03-26 06:52:00,
2013-03-26 02:58:00,58.3,13.7,30.09,North,0,2.7,5.8,17,0.00,,,0.00,VWS V14.01,2013-03-26 06:58:00,
2013-03-26 03:03:00,57.9,13.4,30.09,NNW,338,3.6,3.6,17,0.00,,,0.00,VWS V14.01,2013-03-26 07:03:00,
2013-03-26 03:08:00,57.6,13.1,30.09,NNW,338,3.8,4.0,17,0.00,,,0.00,VWS V14.01,2013-03-26 07:08:00,
2013-03-26 03:13:00,57.6,13.1,30.09,NW,315,2.7,2.7,17,0.00,,,0.00,VWS V14.01,2013-03-26 07:13:00,
2013-03-26 03:18:00,57.2,12.8,30.09,North,0,1.6,4.0,17,0.00,,,0.00,VWS V14.01,2013-03-26 07:18:00,
2013-03-26 03:23:00,57.0,12.7,30.09,NNW,338,4.0,4.0,17,0.00,,,0.00,VWS V14.01,2013-03-26 07:23:00,
2013-03-26 03:28:00,56.8,12.5,30.09,WNW,292,3.8,5.4,17,0.00,,,0.00,VWS V14.01,2013-03-26 07:28:00,
2013-03-26 03:33:00,56.8,12.5,30.09,West,270,5.6,5.6,17,0.00,,,0.00,VWS V14.01,2013-03-26 07:33:00,
2013-03-26 03:38:00,56.8,12.5,30.09,West,270,5.6,5.6,17,0.00,,,0.00,VWS V14.01,2013-03-26 07:38:00,
2013-03-26 03:43:00,56.7,12.4,30.09,NW,315,4.3,4.3,17,0.00,,,0.00,VWS V14.01,2013-03-26 07:43:00,
2013-03-26 03:48:00,56.7,12.4,30.09,West,270,4.7,6.0,17,0.00,,,0.00,VWS V14.01,2013-03-26 07:48:00,
2013-03-26 03:53:00,56.5,12.2,30.09,NNW,338,4.3,4.9,17,0.00,,,0.00,VWS V14.01,2013-03-26 07:53:00,
2013-03-26 03:58:00,56.1,11.9,30.09,NNW,338,2.7,2.7,17,0.00,,,0.00,VWS V14.01,2013-03-26 07:58:00,
2013-03-26 04:03:00,55.8,11.6,30.09,WNW,292,3.8,3.8,17,0.00,,,0.00,VWS V14.01,2013-03-26 08:03:00,
2013-03-26 04:08:00,55.6,11.5,30.09,NNW,338,2.9,4.0,17,0.00,,,0.00,VWS V14.01,2013-03-26 08:08:00,
2013-03-26 04:13:00,55.4,11.3,30.06,North,0,3.4,3.4,17,0.00,,,0.00,VWS V14.01,2013-03-26 08:13:00,
2013-03-26 04:18:00,55.2,12.5,30.06,WNW,292,3.6,4.0,18,0.00,,,0.00,VWS V14.01,2013-03-26 08:18:00,
2013-03-26 04:23:00,55.0,12.3,30.06,WNW,292,3.8,3.8,18,0.00,,,0.00,VWS V14.01,2013-03-26 08:23:00,
2013-03-26 04:28:00,54.9,12.2,30.09,West,270,2.7,3.6,18,0.00,,,0.00,VWS V14.01,2013-03-26 08:28:00,
2013-03-26 04:33:00,54.5,11.9,30.09,NNW,338,3.1,3.1,18,0.00,,,0.00,VWS V14.01,2013-03-26 08:33:00,
2013-03-26 04:38:00,54.3,11.7,30.09,NNW,338,3.8,3.8,18,0.00,,,0.00,VWS V14.01,2013-03-26 08:38:00,
2013-03-26 04:43:00,54.3,11.7,30.12,NW,315,5.4,5.4,18,0.00,,,0.00,VWS V14.01,2013-03-26 08:43:00,
2013-03-26 04:48:00,54.1,11.6,30.12,NNW,338,6.5,6.5,18,0.00,,,0.00,VWS V14.01,2013-03-26 08:48:00,
2013-03-26 04:53:00,53.8,11.3,30.12,NNE,22,7.8,7.8,18,0.00,,,0.00,VWS V14.01,2013-03-26 08:53:00,
2013-03-26 04:58:00,53.2,8.2,30.12,NNW,338,4.5,8.7,16,0.00,,,0.00,VWS V14.01,2013-03-26 08:58:00,
2013-03-26 05:03:00,52.9,7.9,30.12,WNW,292,3.8,7.6,16,0.00,,,0.00,VWS V14.01,2013-03-26 09:03:00,
2013-03-26 05:08:00,52.3,7.5,30.12,NNW,338,3.6,7.8,16,0.00,,,0.00,VWS V14.01,2013-03-26 09:08:00,
2013-03-26 05:13:00,51.8,7.1,30.12,North,0,6.9,10.1,16,0.00,,,0.00,VWS V14.01,2013-03-26 09:13:00,
2013-03-26 05:18:00,51.6,6.9,30.12,North,0,4.3,4.3,16,0.00,,,0.00,VWS V14.01,2013-03-26 09:18:00,
2013-03-26 05:23:00,51.1,6.5,30.12,NNE,22,4.0,4.0,16,0.00,,,0.00,VWS V14.01,2013-03-26 09:23:00,
2013-03-26 05:28:00,50.9,6.3,30.12,North,0,5.4,6.0,16,0.00,,,0.00,VWS V14.01,2013-03-26 09:28:00,
2013-03-26 05:33:00,50.7,6.2,30.12,NNE,22,4.0,5.6,16,0.00,,,0.00,VWS V14.01,2013-03-26 09:33:00,
2013-03-26 05:38:00,50.4,5.9,30.12,NNE,22,2.7,5.6,16,0.00,,,0.00,VWS V14.01,2013-03-26 09:38:00,
2013-03-26 05:43:00,50.0,5.6,30.15,North,0,4.0,4.3,16,0.00,,,0.00,VWS V14.01,2013-03-26 09:43:00,
2013-03-26 05:48:00,50.0,5.6,30.15,NNE,22,2.0,3.6,16,0.00,,,0.00,VWS V14.01,2013-03-26 09:48:00,
2013-03-26 05:53:00,49.5,5.2,30.15,NNW,338,4.0,4.0,16,0.00,,,0.00,VWS V14.01,2013-03-26 09:53:00,
2013-03-26 05:58:00,49.3,5.0,30.15,NNE,22,3.8,4.7,16,0.00,,,0.00,VWS V14.01,2013-03-26 09:58:00,
2013-03-26 06:03:00,49.1,4.9,30.15,North,0,5.4,5.8,16,0.00,,,0.00,VWS V14.01,2013-03-26 10:03:00,
2013-03-26 06:08:00,48.9,4.7,30.15,North,0,3.6,8.5,16,0.00,,,0.00,VWS V14.01,2013-03-26 10:08:00,
2013-03-26 06:13:00,48.7,4.6,30.15,NNW,338,3.6,3.6,16,0.00,,,0.00,VWS V14.01,2013-03-26 10:13:00,
2013-03-26 06:18:00,48.6,4.4,30.15,NNW,338,1.6,2.5,16,0.00,,,0.00,VWS V14.01,2013-03-26 10:18:00,
2013-03-26 06:23:00,48.6,4.4,30.15,NNE,22,6.9,6.9,16,0.00,,,0.00,VWS V14.01,2013-03-26 10:23:00,
2013-03-26 06:28:00,48.2,4.1,30.15,NNE,22,2.9,2.9,16,0.00,,,0.00,VWS V14.01,2013-03-26 10:28:00,
2013-03-26 06:33:00,48.2,4.1,30.15,North,0,3.8,5.8,16,0.00,,,0.00,VWS V14.01,2013-03-26 10:33:00,
2013-03-26 06:38:00,48.0,5.3,30.15,North,0,2.7,2.7,17,0.00,,,0.00,VWS V14.01,2013-03-26 10:38:00,
2013-03-26 06:43:00,47.8,5.2,30.15,NNE,22,3.4,5.4,17,0.00,,,0.00,VWS V14.01,2013-03-26 10:43:00,
2013-03-26 06:48:00,47.7,5.0,30.15,NNW,338,4.0,4.0,17,0.00,,,0.00,VWS V14.01,2013-03-26 10:48:00,
2013-03-26 06:54:00,47.5,4.8,30.15,NNW,338,2.0,3.8,17,0.00,,,0.00,VWS V14.01,2013-03-26 10:54:00,
2013-03-26 06:59:00,47.3,4.7,30.15,WNW,292,3.6,4.7,17,0.00,,,0.00,VWS V14.01,2013-03-26 10:59:00,
2013-03-26 07:04:00,47.3,4.7,30.15,North,0,3.4,5.6,17,0.00,,,0.00,VWS V14.01,2013-03-26 11:04:00,
2013-03-26 07:09:00,47.3,4.7,30.15,NNW,338,4.3,5.8,17,0.00,,,0.00,VWS V14.01,2013-03-26 11:09:00,
2013-03-26 07:14:00,47.1,4.6,30.15,NW,315,3.6,4.3,17,0.00,,,0.00,VWS V14.01,2013-03-26 11:14:00,
2013-03-26 07:19:00,47.1,4.6,30.15,NNW,338,4.3,5.6,17,0.00,,,0.00,VWS V14.01,2013-03-26 11:19:00,
2013-03-26 07:24:00,47.1,4.6,30.15,NNW,338,4.3,5.4,17,0.00,,,0.00,VWS V14.01,2013-03-26 11:24:00,
2013-03-26 07:29:00,46.9,4.4,30.18,North,0,5.4,5.4,17,0.00,,,0.00,VWS V14.01,2013-03-26 11:29:00,
2013-03-26 07:34:00,46.8,4.3,30.18,North,0,3.6,4.9,17,0.00,,,0.00,VWS V14.01,2013-03-26 11:34:00,
2013-03-26 07:39:00,46.8,4.3,30.18,North,0,6.9,6.9,17,0.00,,,0.00,VWS V14.01,2013-03-26 11:39:00,
2013-03-26 07:44:00,46.6,4.1,30.18,NNW,338,4.0,5.6,17,0.00,,,0.00,VWS V14.01,2013-03-26 11:44:00,
2013-03-26 07:49:00,46.8,4.3,30.18,NNE,22,6.0,6.0,17,0.00,,,0.00,VWS V14.01,2013-03-26 11:49:00,
2013-03-26 07:54:00,46.8,4.3,30.18,North,0,5.4,8.5,17,0.00,,,0.00,VWS V14.01,2013-03-26 11:54:00,
2013-03-26 07:59:00,46.9,4.4,30.18,North,0,4.7,6.0,17,0.00,,,0.00,VWS V14.01,2013-03-26 11:59:00,
2013-03-26 08:04:00,47.1,4.6,30.18,NNE,22,7.6,7.6,17,0.00,,,0.00,VWS V14.01,2013-03-26 12:04:00,
2013-03-26 08:09:00,47.7,5.0,30.18,NNE,22,4.3,5.8,17,0.00,,,0.00,VWS V14.01,2013-03-26 12:09:00,
2013-03-26 08:14:00,48.0,5.3,30.18,NNW,338,2.7,2.7,17,0.00,,,0.00,VWS V14.01,2013-03-26 12:14:00,
2013-03-26 08:19:00,48.6,4.4,30.18,NNE,22,3.4,5.6,16,0.00,,,0.00,VWS V14.01,2013-03-26 12:19:00,
2013-03-26 08:24:00,48.7,4.6,30.18,North,0,7.6,7.6,16,0.00,,,0.00,VWS V14.01,2013-03-26 12:24:00,
2013-03-26 08:29:00,49.3,5.0,30.21,NW,315,8.1,8.1,16,0.00,,,0.00,VWS V14.01,2013-03-26 12:29:00,
2013-03-26 08:34:00,49.6,5.3,30.21,NNW,338,6.3,9.4,16,0.00,,,0.00,VWS V14.01,2013-03-26 12:34:00,
2013-03-26 08:39:00,50.0,5.6,30.21,NNW,338,5.6,5.8,16,0.00,,,0.00,VWS V14.01,2013-03-26 12:39:00,
2013-03-26 08:44:00,50.7,6.2,30.18,NNE,22,6.3,6.5,16,0.00,,,0.00,VWS V14.01,2013-03-26 12:44:00,
2013-03-26 08:49:00,51.1,6.5,30.18,NE,45,3.8,3.8,16,0.00,,,0.00,VWS V14.01,2013-03-26 12:49:00,
2013-03-26 08:54:00,51.3,6.6,30.18,NNW,338,5.4,5.8,16,0.00,,,0.00,VWS V14.01,2013-03-26 12:54:00,
2013-03-26 08:59:00,51.8,7.1,30.18,North,0,10.3,10.3,16,0.00,,,0.00,VWS V14.01,2013-03-26 12:59:00,
2013-03-26 09:04:00,52.5,7.6,30.18,NNW,338,4.0,4.0,16,0.00,,,0.00,VWS V14.01,2013-03-26 13:04:00,
2013-03-26 09:09:00,52.7,7.8,30.18,NNW,338,5.4,5.4,16,0.00,,,0.00,VWS V14.01,2013-03-26 13:09:00,
2013-03-26 09:14:00,53.1,8.1,30.21,NNE,22,3.4,9.2,16,0.00,,,0.00,VWS V14.01,2013-03-26 13:14:00,
2013-03-26 09:19:00,53.4,8.4,30.21,NNE,22,4.9,4.9,16,0.00,,,0.00,VWS V14.01,2013-03-26 13:19:00,
2013-03-26 09:24:00,54.1,7.5,30.21,WNW,292,4.9,4.9,15,0.00,,,0.00,VWS V14.01,2013-03-26 13:24:00,
2013-03-26 09:29:00,54.5,7.8,30.21,West,270,6.9,6.9,15,0.00,,,0.00,VWS V14.01,2013-03-26 13:29:00,
2013-03-26 09:34:00,55.2,8.4,30.21,WSW,248,4.9,4.9,15,0.00,,,0.00,VWS V14.01,2013-03-26 13:34:00,
2013-03-26 09:39:00,55.8,11.6,30.21,WNW,292,5.4,6.5,17,0.00,,,0.00,VWS V14.01,2013-03-26 13:39:00,
2013-03-26 09:44:00,56.1,11.9,30.21,West,270,4.9,4.9,17,0.00,,,0.00,VWS V14.01,2013-03-26 13:44:00,
2013-03-26 09:49:00,56.3,9.3,30.21,NNW,338,4.9,5.8,15,0.00,,,0.00,VWS V14.01,2013-03-26 13:49:00,
2013-03-26 09:54:00,56.7,9.6,30.21,NNE,22,6.0,6.0,15,0.00,,,0.00,VWS V14.01,2013-03-26 13:54:00,
2013-03-26 09:59:00,56.7,9.6,30.21,NW,315,8.5,8.5,15,0.00,,,0.00,VWS V14.01,2013-03-26 13:59:00,
2013-03-26 10:04:00,56.8,9.7,30.21,West,270,8.5,8.5,15,0.00,,,0.00,VWS V14.01,2013-03-26 14:04:00,
2013-03-26 10:09:00,56.8,9.7,30.21,NNW,338,5.6,10.7,15,0.00,,,0.00,VWS V14.01,2013-03-26 14:09:00,
2013-03-26 10:14:00,57.0,9.8,30.21,West,270,7.8,9.8,15,0.00,,,0.00,VWS V14.01,2013-03-26 14:14:00,
2013-03-26 10:19:00,57.2,8.4,30.21,WNW,292,13.2,13.2,14,0.00,,,0.00,VWS V14.01,2013-03-26 14:19:00,
2013-03-26 10:24:00,57.0,9.8,30.21,North,0,7.8,7.8,15,0.00,,,0.00,VWS V14.01,2013-03-26 14:24:00,
2013-03-26 10:29:00,57.6,8.7,30.21,West,270,6.3,8.1,14,0.00,,,0.00,VWS V14.01,2013-03-26 14:29:00,
2013-03-26 10:34:00,57.7,8.9,30.21,WNW,292,4.0,4.0,14,0.00,,,0.00,VWS V14.01,2013-03-26 14:34:00,
2013-03-26 10:39:00,57.2,8.4,30.21,WNW,292,11.0,11.0,14,0.00,,,0.00,VWS V14.01,2013-03-26 14:39:00,
2013-03-26 10:44:00,56.1,9.1,30.24,NNE,22,7.8,8.7,15,0.00,,,0.00,VWS V14.01,2013-03-26 14:44:00,
2013-03-26 10:49:00,56.3,9.3,30.24,WNW,292,8.1,8.1,15,0.00,,,0.00,VWS V14.01,2013-03-26 14:49:00,
2013-03-26 10:54:00,56.1,9.1,30.24,WNW,292,10.5,10.5,15,0.00,,,0.00,VWS V14.01,2013-03-26 14:54:00,
2013-03-26 10:59:00,56.7,9.6,30.21,West,270,5.4,11.0,15,0.00,,,0.00,VWS V14.01,2013-03-26 14:59:00,
2013-03-26 11:04:00,56.8,9.7,30.21,WSW,248,7.6,7.6,15,0.00,,,0.00,VWS V14.01,2013-03-26 15:04:00,
2013-03-26 11:09:00,56.8,9.7,30.21,WSW,248,5.8,8.5,15,0.00,,,0.00,VWS V14.01,2013-03-26 15:09:00,
2013-03-26 11:14:00,57.2,8.4,30.21,West,270,11.0,11.0,14,0.00,,,0.00,VWS V14.01,2013-03-26 15:14:00,
2013-03-26 11:19:00,57.0,9.8,30.21,West,270,7.8,7.8,15,0.00,,,0.00,VWS V14.01,2013-03-26 15:19:00,
2013-03-26 11:24:00,56.8,9.7,30.21,WSW,248,11.0,11.0,15,0.00,,,0.00,VWS V14.01,2013-03-26 15:24:00,
2013-03-26 11:29:00,57.2,8.4,30.24,West,270,5.4,10.1,14,0.00,,,0.00,VWS V14.01,2013-03-26 15:29:00,
2013-03-26 11:34:00,57.7,8.9,30.24,NW,315,2.7,5.8,14,0.00,,,0.00,VWS V14.01,2013-03-26 15:34:00,
2013-03-26 11:39:00,58.5,9.5,30.24,West,270,5.4,10.1,14,0.00,,,0.00,VWS V14.01,2013-03-26 15:39:00,
2013-03-26 11:44:00,57.9,9.0,30.24,North,0,7.6,7.6,14,0.00,,,0.00,VWS V14.01,2013-03-26 15:44:00,
2013-03-26 11:49:00,57.4,8.6,30.24,WNW,292,6.3,9.0,14,0.00,,,0.00,VWS V14.01,2013-03-26 15:49:00,
2013-03-26 11:54:00,58.3,9.3,30.24,North,0,5.8,5.8,14,0.00,,,0.00,VWS V14.01,2013-03-26 15:54:00,
2013-03-26 11:59:00,58.3,9.3,30.24,West,270,7.8,7.8,14,0.00,,,0.00,VWS V14.01,2013-03-26 15:59:00,
2013-03-26 12:04:00,57.9,9.0,30.24,North,0,5.8,5.8,14,0.00,,,0.00,VWS V14.01,2013-03-26 16:04:00,
2013-03-26 12:09:00,58.3,9.3,30.24,NNW,338,6.0,12.3,14,0.00,,,0.00,VWS V14.01,2013-03-26 16:09:00,
2013-03-26 12:14:00,58.5,9.5,30.24,WNW,292,5.4,5.4,14,0.00,,,0.00,VWS V14.01,2013-03-26 16:14:00,
2013-03-26 12:19:00,57.9,9.0,30.24,NW,315,7.8,10.1,14,0.00,,,0.00,VWS V14.01,2013-03-26 16:19:00,
2013-03-26 12:24:00,57.9,9.0,30.24,WNW,292,9.8,10.1,14,0.00,,,0.00,VWS V14.01,2013-03-26 16:24:00,
2013-03-26 12:29:00,58.3,9.3,30.24,WNW,292,10.7,10.7,14,0.00,,,0.00,VWS V14.01,2013-03-26 16:29:00,
2013-03-26 12:34:00,58.5,9.5,30.24,NNE,22,6.0,9.6,14,0.00,,,0.00,VWS V14.01,2013-03-26 16:34:00,
2013-03-26 12:39:00,58.3,9.3,30.24,WSW,248,7.4,8.7,14,0.00,,,0.00,VWS V14.01,2013-03-26 16:39:00,
2013-03-26 12:45:00,58.3,9.3,30.24,WSW,248,12.3,12.3,14,0.00,,,0.00,VWS V14.01,2013-03-26 16:45:00,
2013-03-26 12:50:00,58.1,9.2,30.24,North,0,7.4,10.5,14,0.00,,,0.00,VWS V14.01,2013-03-26 16:50:00,
2013-03-26 12:55:00,58.1,9.2,30.24,West,270,8.7,12.5,14,0.00,,,0.00,VWS V14.01,2013-03-26 16:55:00,
2013-03-26 13:00:00,58.1,9.2,30.27,WSW,248,7.6,11.9,14,0.00,,,0.00,VWS V14.01,2013-03-26 17:00:00,
2013-03-26 13:05:00,58.5,9.5,30.27,NW,315,9.4,9.4,14,0.00,,,0.00,VWS V14.01,2013-03-26 17:05:00,
2013-03-26 13:10:00,58.5,9.5,30.27,West,270,10.1,12.1,14,0.00,,,0.00,VWS V14.01,2013-03-26 17:10:00,
2013-03-26 13:15:00,58.8,9.8,30.27,NNW,338,7.6,7.6,14,0.00,,,0.00,VWS V14.01,2013-03-26 17:15:00,
2013-03-26 13:20:00,58.8,9.8,30.27,NW,315,7.8,10.7,14,0.00,,,0.00,VWS V14.01,2013-03-26 17:20:00,
2013-03-26 13:25:00,57.6,8.7,30.27,NNE,22,16.8,16.8,14,0.00,,,0.00,VWS V14.01,2013-03-26 17:25:00,
2013-03-26 13:30:00,57.4,8.6,30.24,West,270,9.8,9.8,14,0.00,,,0.00,VWS V14.01,2013-03-26 17:30:00,
2013-03-26 13:35:00,57.9,9.0,30.24,WNW,292,7.8,10.7,14,0.00,,,0.00,VWS V14.01,2013-03-26 17:35:00,
2013-03-26 13:40:00,57.2,8.4,30.24,West,270,8.7,11.4,14,0.00,,,0.00,VWS V14.01,2013-03-26 17:40:00,
2013-03-26 13:45:00,58.1,9.2,30.24,West,270,12.3,12.3,14,0.00,,,0.00,VWS V14.01,2013-03-26 17:45:00,
2013-03-26 13:50:00,57.7,8.9,30.24,WNW,292,8.1,8.1,14,0.00,,,0.00,VWS V14.01,2013-03-26 17:50:00,
2013-03-26 13:55:00,57.6,8.7,30.24,West,270,5.8,10.3,14,0.00,,,0.00,VWS V14.01,2013-03-26 17:55:00,
2013-03-26 14:00:00,58.1,9.2,30.24,WNW,292,9.8,10.7,14,0.00,,,0.00,VWS V14.01,2013-03-26 18:00:00,
2013-03-26 14:05:00,57.7,8.9,30.24,NNW,338,7.4,7.4,14,0.00,,,0.00,VWS V14.01,2013-03-26 18:05:00,
2013-03-26 14:10:00,57.2,8.4,30.24,WNW,292,10.1,10.1,14,0.00,,,0.00,VWS V14.01,2013-03-26 18:10:00,
2013-03-26 14:15:00,58.1,9.2,30.24,WSW,248,3.1,8.7,14,0.00,,,0.00,VWS V14.01,2013-03-26 18:15:00,
2013-03-26 14:20:00,57.9,9.0,30.24,WSW,248,6.0,6.0,14,0.00,,,0.00,VWS V14.01,2013-03-26 18:20:00,
2013-03-26 14:25:00,57.9,9.0,30.24,NNE,22,9.8,12.3,14,0.00,,,0.00,VWS V14.01,2013-03-26 18:25:00,
2013-03-26 14:30:00,58.5,9.5,30.24,WSW,248,10.3,10.3,14,0.00,,,0.00,VWS V14.01,2013-03-26 18:30:00,
2013-03-26 14:35:00,59.7,10.5,30.24,WNW,292,2.9,5.6,14,0.00,,,0.00,VWS V14.01,2013-03-26 18:35:00,
2013-03-26 14:40:00,58.3,9.3,30.24,WSW,248,8.5,8.5,14,0.00,,,0.00,VWS V14.01,2013-03-26 18:40:00,
2013-03-26 14:45:00,56.7,9.6,30.24,NNW,338,14.8,14.8,15,0.00,,,0.00,VWS V14.01,2013-03-26 18:45:00,
2013-03-26 14:50:00,57.0,9.8,30.24,West,270,5.8,10.3,15,0.00,,,0.00,VWS V14.01,2013-03-26 18:50:00,
2013-03-26 14:55:00,56.5,9.4,30.24,West,270,9.6,12.5,15,0.00,,,0.00,VWS V14.01,2013-03-26 18:55:00,
2013-03-26 15:00:00,57.7,8.9,30.24,WSW,248,13.2,13.2,14,0.00,,,0.00,VWS V14.01,2013-03-26 19:00:00,
2013-03-26 15:05:00,57.6,8.7,30.24,WNW,292,7.8,7.8,14,0.00,,,0.00,VWS V14.01,2013-03-26 19:05:00,
2013-03-26 15:10:00,57.9,9.0,30.24,WNW,292,9.8,12.1,14,0.00,,,0.00,VWS V14.01,2013-03-26 19:10:00,
2013-03-26 15:15:00,57.9,9.0,30.24,West,270,11.9,13.9,14,0.00,,,0.00,VWS V14.01,2013-03-26 19:15:00,
2013-03-26 15:20:00,57.9,9.0,30.24,West,270,15.4,15.4,14,0.00,,,0.00,VWS V14.01,2013-03-26 19:20:00,
2013-03-26 15:25:00,57.9,9.0,30.24,West,270,7.2,10.3,14,0.00,,,0.00,VWS V14.01,2013-03-26 19:25:00,
2013-03-26 15:30:00,57.2,8.4,30.21,NW,315,9.4,13.2,14,0.00,,,0.00,VWS V14.01,2013-03-26 19:30:00,
2013-03-26 15:35:00,57.6,8.7,30.21,NW,315,8.1,12.8,14,0.00,,,0.00,VWS V14.01,2013-03-26 19:35:00,
2013-03-26 15:40:00,57.9,9.0,30.21,NNW,338,7.8,12.1,14,0.00,,,0.00,VWS V14.01,2013-03-26 19:40:00,
2013-03-26 15:45:00,58.1,9.2,30.21,WSW,248,10.5,10.5,14,0.00,,,0.00,VWS V14.01,2013-03-26 19:45:00,
2013-03-26 15:50:00,57.6,8.7,30.21,West,270,7.6,15.4,14,0.00,,,0.00,VWS V14.01,2013-03-26 19:50:00,
2013-03-26 15:55:00,58.5,9.5,30.21,West,270,13.2,13.2,14,0.00,,,0.00,VWS V14.01,2013-03-26 19:55:00,
2013-03-26 16:00:00,57.6,8.7,30.18,WNW,292,13.4,13.9,14,0.00,,,0.00,VWS V14.01,2013-03-26 20:00:00,
2013-03-26 16:05:00,57.2,8.4,30.18,NW,315,8.5,10.1,14,0.00,,,0.00,VWS V14.01,2013-03-26 20:05:00,
2013-03-26 16:10:00,57.6,8.7,30.18,WNW,292,7.8,14.3,14,0.00,,,0.00,VWS V14.01,2013-03-26 20:10:00,
2013-03-26 16:15:00,58.8,9.8,30.21,NNE,22,11.0,11.0,14,0.00,,,0.00,VWS V14.01,2013-03-26 20:15:00,
2013-03-26 16:20:00,58.5,9.5,30.21,WNW,292,10.3,13.0,14,0.00,,,0.00,VWS V14.01,2013-03-26 20:20:00,
2013-03-26 16:25:00,57.7,8.9,30.21,West,270,10.5,13.4,14,0.00,,,0.00,VWS V14.01,2013-03-26 20:25:00,
2013-03-26 16:30:00,56.7,9.6,30.18,SSE,158,5.6,6.7,15,0.00,,,0.00,VWS V14.01,2013-03-26 20:30:00,
2013-03-26 16:35:00,56.3,9.3,30.18,West,270,6.5,9.6,15,0.00,,,0.00,VWS V14.01,2013-03-26 20:35:00,
2013-03-26 16:40:00,57.6,8.7,30.18,West,270,11.2,17.5,14,0.00,,,0.00,VWS V14.01,2013-03-26 20:40:00,
2013-03-26 16:45:00,57.4,8.6,30.24,West,270,8.1,14.8,14,0.00,,,0.00,VWS V14.01,2013-03-26 20:45:00,
2013-03-26 16:50:00,57.7,8.9,30.24,WNW,292,3.8,7.4,14,0.00,,,0.00,VWS V14.01,2013-03-26 20:50:00,
2013-03-26 16:55:00,58.5,9.5,30.24,West,270,8.1,8.1,14,0.00,,,0.00,VWS V14.01,2013-03-26 20:55:00,
2013-03-26 17:00:00,58.8,9.8,30.21,NW,315,10.5,10.5,14,0.00,,,0.00,VWS V14.01,2013-03-26 21:00:00,
2013-03-26 17:05:00,58.6,9.6,30.21,WNW,292,6.3,11.0,14,0.00,,,0.00,VWS V14.01,2013-03-26 21:05:00,
2013-03-26 17:10:00,59.2,10.0,30.21,WNW,292,7.6,7.6,14,0.00,,,0.00,VWS V14.01,2013-03-26 21:10:00,
2013-03-26 17:15:00,58.5,9.5,30.21,WNW,292,12.3,12.3,14,0.00,,,0.00,VWS V14.01,2013-03-26 21:15:00,
2013-03-26 17:21:00,57.7,8.9,30.21,WNW,292,9.8,10.7,14,0.00,,,0.00,VWS V14.01,2013-03-26 21:21:00,
2013-03-26 17:26:00,57.6,8.7,30.21,NNW,338,10.3,14.1,14,0.00,,,0.00,VWS V14.01,2013-03-26 21:26:00,
2013-03-26 17:31:00,56.8,9.7,30.21,North,0,7.4,7.6,15,0.00,,,0.00,VWS V14.01,2013-03-26 21:31:00,
2013-03-26 17:36:00,57.9,9.0,30.21,WNW,292,4.9,6.5,14,0.00,,,0.00,VWS V14.01,2013-03-26 21:36:00,
2013-03-26 17:41:00,57.9,9.0,30.21,WSW,248,8.7,8.7,14,0.00,,,0.00,VWS V14.01,2013-03-26 21:41:00,
2013-03-26 17:47:00,57.2,8.4,30.21,NNE,22,8.1,8.1,14,0.00,,,0.00,VWS V14.01,2013-03-26 21:47:00,
2013-03-26 17:52:00,57.9,9.0,30.21,West,270,4.3,8.5,14,0.00,,,0.00,VWS V14.01,2013-03-26 21:52:00,
2013-03-26 17:57:00,57.9,9.0,30.21,NW,315,3.4,6.3,14,0.00,,,0.00,VWS V14.01,2013-03-26 21:57:00,
2013-03-26 18:02:00,57.9,9.0,30.21,West,270,8.7,8.7,14,0.00,,,0.00,VWS V14.01,2013-03-26 22:02:00,
2013-03-26 18:07:00,57.6,8.7,30.21,West,270,7.2,8.1,14,0.00,,,0.00,VWS V14.01,2013-03-26 22:07:00,
2013-03-26 18:12:00,57.2,8.4,30.21,WSW,248,5.8,6.3,14,0.00,,,0.00,VWS V14.01,2013-03-26 22:12:00,
2013-03-26 18:17:00,57.0,9.8,30.21,WNW,292,10.3,10.3,15,0.00,,,0.00,VWS V14.01,2013-03-26 22:17:00,
2013-03-26 18:22:00,56.5,9.4,30.21,WSW,248,5.4,5.4,15,0.00,,,0.00,VWS V14.01,2013-03-26 22:22:00,
2013-03-26 18:27:00,56.8,9.7,30.18,West,270,10.1,11.0,15,0.00,,,0.00,VWS V14.01,2013-03-26 22:27:00,
2013-03-26 18:32:00,56.5,9.4,30.18,West,270,6.3,6.3,15,0.00,,,0.00,VWS V14.01,2013-03-26 22:32:00,
2013-03-26 18:37:00,56.1,9.1,30.18,WSW,248,6.5,9.8,15,0.00,,,0.00,VWS V14.01,2013-03-26 22:37:00,
2013-03-26 18:42:00,56.1,9.1,30.21,West,270,6.5,10.3,15,0.00,,,0.00,VWS V14.01,2013-03-26 22:42:00,
2013-03-26 18:47:00,55.9,9.0,30.21,West,270,8.5,10.1,15,0.00,,,0.00,VWS V14.01,2013-03-26 22:47:00,
2013-03-26 18:52:00,55.9,9.0,30.21,West,270,4.9,9.4,15,0.00,,,0.00,VWS V14.01,2013-03-26 22:52:00,
2013-03-26 18:58:00,55.6,8.7,30.21,WSW,248,7.6,9.6,15,0.00,,,0.00,VWS V14.01,2013-03-26 22:58:00,
2013-03-26 19:03:00,54.9,8.1,30.21,ESE,112,2.2,4.7,15,0.00,,,0.00,VWS V14.01,2013-03-26 23:03:00,
2013-03-26 19:08:00,54.7,8.0,30.21,WNW,292,6.3,7.4,15,0.00,,,0.00,VWS V14.01,2013-03-26 23:08:00,
2013-03-26 19:13:00,54.3,7.7,30.18,SW,225,4.3,7.6,15,0.00,,,0.00,VWS V14.01,2013-03-26 23:13:00,
2013-03-26 19:18:00,53.6,11.1,30.18,WSW,248,3.1,7.8,18,0.00,,,0.00,VWS V14.01,2013-03-26 23:18:00,
2013-03-26 19:23:00,52.9,7.9,30.18,WNW,292,8.1,8.1,16,0.00,,,0.00,VWS V14.01,2013-03-26 23:23:00,
2013-03-26 19:28:00,52.5,10.2,30.21,WSW,248,4.0,5.8,18,0.00,,,0.00,VWS V14.01,2013-03-26 23:28:00,
2013-03-26 19:33:00,52.0,9.8,30.21,West,270,3.4,3.4,18,0.00,,,0.00,VWS V14.01,2013-03-26 23:33:00,
2013-03-26 19:38:00,51.6,10.7,30.21,West,270,2.9,6.3,19,0.00,,,0.00,VWS V14.01,2013-03-26 23:38:00,
2013-03-26 19:43:00,51.3,10.4,30.21,WSW,248,3.6,3.6,19,0.00,,,0.00,VWS V14.01,2013-03-26 23:43:00,
2013-03-26 19:48:00,50.9,10.1,30.21,West,270,6.0,6.0,19,0.00,,,0.00,VWS V14.01,2013-03-26 23:48:00,
2013-03-26 19:53:00,50.7,10.0,30.21,WNW,292,4.3,4.9,19,0.00,,,0.00,VWS V14.01,2013-03-26 23:53:00,
2013-03-26 19:58:00,50.4,9.7,30.24,West,270,5.4,6.7,19,0.00,,,0.00,VWS V14.01,2013-03-26 23:58:00,
2013-03-26 20:03:00,50.4,9.7,30.24,NW,315,2.5,2.5,19,0.00,,,0.00,VWS V14.01,2013-03-27 00:03:00,
2013-03-26 20:08:00,50.2,9.5,30.24,North,0,2.9,4.0,19,0.00,,,0.00,VWS V14.01,2013-03-27 00:08:00,
2013-03-26 20:13:00,50.2,9.5,30.24,NNW,338,5.4,5.4,19,0.00,,,0.00,VWS V14.01,2013-03-27 00:13:00,
2013-03-26 20:18:00,50.2,9.5,30.24,ENE,68,5.4,5.4,19,0.00,,,0.00,VWS V14.01,2013-03-27 00:18:00,
2013-03-26 20:23:00,50.0,9.4,30.24,West,270,3.8,3.8,19,0.00,,,0.00,VWS V14.01,2013-03-27 00:23:00,
2013-03-26 20:28:00,50.0,9.4,30.24,West,270,4.0,5.4,19,0.00,,,0.00,VWS V14.01,2013-03-27 00:28:00,
2013-03-26 20:33:00,50.0,9.4,30.24,WSW,248,3.8,4.3,19,0.00,,,0.00,VWS V14.01,2013-03-27 00:33:00,
2013-03-26 20:38:00,49.8,9.2,30.24,WNW,292,4.5,6.0,19,0.00,,,0.00,VWS V14.01,2013-03-27 00:38:00,
2013-03-26 20:43:00,49.8,9.2,30.27,WNW,292,5.8,5.8,19,0.00,,,0.00,VWS V14.01,2013-03-27 00:43:00,
2013-03-26 20:48:00,49.6,9.1,30.27,NNW,338,2.5,3.1,19,0.00,,,0.00,VWS V14.01,2013-03-27 00:48:00,
2013-03-26 20:53:00,49.6,9.1,30.27,NW,315,3.6,3.8,19,0.00,,,0.00,VWS V14.01,2013-03-27 00:53:00,
2013-03-26 20:58:00,49.5,8.9,30.27,West,270,2.9,3.6,19,0.00,,,0.00,VWS V14.01,2013-03-27 00:58:00,
2013-03-26 21:03:00,49.5,8.9,30.27,WSW,248,2.9,2.9,19,0.00,,,0.00,VWS V14.01,2013-03-27 01:03:00,
2013-03-26 21:08:00,49.3,8.8,30.27,West,270,2.2,3.4,19,0.00,,,0.00,VWS V14.01,2013-03-27 01:08:00,
2013-03-26 21:13:00,48.9,8.5,30.27,WSW,248,2.2,3.8,19,0.00,,,0.00,VWS V14.01,2013-03-27 01:13:00,
2013-03-26 21:19:00,48.9,8.5,30.27,West,270,2.5,3.6,19,0.00,,,0.00,VWS V14.01,2013-03-27 01:19:00,
2013-03-26 21:24:00,49.1,8.6,30.27,WNW,292,2.7,4.3,19,0.00,,,0.00,VWS V14.01,2013-03-27 01:24:00,
2013-03-26 21:29:00,49.1,10.9,30.27,WNW,292,3.4,3.4,21,0.00,,,0.00,VWS V14.01,2013-03-27 01:29:00,
2013-03-26 21:34:00,49.1,8.6,30.27,WNW,292,4.7,4.7,19,0.00,,,0.00,VWS V14.01,2013-03-27 01:34:00,
2013-03-26 21:39:00,48.9,8.5,30.27,WNW,292,2.5,2.5,19,0.00,,,0.00,VWS V14.01,2013-03-27 01:39:00,
2013-03-26 21:44:00,48.9,10.7,30.27,West,270,3.1,3.8,21,0.00,,,0.00,VWS V14.01,2013-03-27 01:44:00,
2013-03-26 21:49:00,48.9,10.7,30.27,North,0,3.1,3.1,21,0.00,,,0.00,VWS V14.01,2013-03-27 01:49:00,
2013-03-26 21:54:00,48.7,10.6,30.27,WNW,292,2.5,2.9,21,0.00,,,0.00,VWS V14.01,2013-03-27 01:54:00,
2013-03-26 21:59:00,48.7,10.6,30.27,WNW,292,2.2,2.5,21,0.00,,,0.00,VWS V14.01,2013-03-27 01:59:00,
2013-03-26 22:04:00,48.7,10.6,30.27,NNW,338,1.3,1.6,21,0.00,,,0.00,VWS V14.01,2013-03-27 02:04:00,
2013-03-26 22:09:00,48.4,10.3,30.27,NW,315,1.3,2.7,21,0.00,,,0.00,VWS V14.01,2013-03-27 02:09:00,
2013-03-26 22:14:00,48.2,10.1,30.27,NNW,338,2.0,2.0,21,0.00,,,0.00,VWS V14.01,2013-03-27 02:14:00,
2013-03-26 22:19:00,48.2,10.1,30.27,NNW,338,2.0,2.0,21,0.00,,,0.00,VWS V14.01,2013-03-27 02:19:00,
2013-03-26 22:24:00,48.0,11.0,30.27,WNW,292,1.1,1.1,22,0.00,,,0.00,VWS V14.01,2013-03-27 02:24:00,
2013-03-26 22:29:00,47.8,10.9,30.30,West,270,2.0,3.1,22,0.00,,,0.00,VWS V14.01,2013-03-27 02:29:00,
2013-03-26 22:34:00,47.8,10.9,30.30,NNW,338,1.3,1.3,22,0.00,,,0.00,VWS V14.01,2013-03-27 02:34:00,
2013-03-26 22:39:00,47.3,10.4,30.30,NW,315,0.0,0.0,22,0.00,,,0.00,VWS V14.01,2013-03-27 02:39:00,
2013-03-26 22:44:00,47.3,10.4,30.30,NNW,338,0.0,0.0,22,0.00,,,0.00,VWS V14.01,2013-03-27 02:44:00,
2013-03-26 22:49:00,47.1,12.2,30.30,NNW,338,0.0,0.0,24,0.00,,,0.00,VWS V14.01,2013-03-27 02:49:00,
2013-03-26 22:54:00,46.8,11.9,30.30,NNW,338,0.0,0.0,24,0.00,,,0.00,VWS V14.01,2013-03-27 02:54:00,
2013-03-26 22:59:00,46.6,11.7,30.30,NNW,338,1.3,1.3,24,0.00,,,0.00,VWS V14.01,2013-03-27 02:59:00,
2013-03-26 23:04:00,46.8,11.9,30.30,WNW,292,2.7,2.7,24,0.00,,,0.00,VWS V14.01,2013-03-27 03:04:00,
2013-03-26 23:09:00,46.9,12.1,30.30,NNW,338,1.3,1.3,24,0.00,,,0.00,VWS V14.01,2013-03-27 03:09:00,
2013-03-26 23:14:00,46.8,14.6,30.30,WNW,292,1.1,1.6,27,0.00,,,0.00,VWS V14.01,2013-03-27 03:14:00,
2013-03-26 23:19:00,46.8,14.6,30.30,WNW,292,0.0,0.0,27,0.00,,,0.00,VWS V14.01,2013-03-27 03:19:00,
2013-03-26 23:24:00,46.8,14.6,30.30,NNW,338,0.0,0.0,27,0.00,,,0.00,VWS V14.01,2013-03-27 03:24:00,
2013-03-26 23:29:00,46.9,14.7,30.30,WNW,292,2.2,2.2,27,0.00,,,0.00,VWS V14.01,2013-03-27 03:29:00,
2013-03-26 23:34:00,47.1,15.7,30.30,WNW,292,0.0,1.1,28,0.00,,,0.00,VWS V14.01,2013-03-27 03:34:00,
2013-03-26 23:39:00,46.8,14.6,30.30,North,0,1.3,1.3,27,0.00,,,0.00,VWS V14.01,2013-03-27 03:39:00,
2013-03-26 23:44:00,46.4,14.2,30.30,West,270,1.6,1.6,27,0.00,,,0.00,VWS V14.01,2013-03-27 03:44:00,
2013-03-26 23:49:00,46.8,15.4,30.30,NNW,338,2.2,2.2,28,0.00,,,0.00,VWS V14.01,2013-03-27 03:49:00,
2013-03-26 23:54:00,46.6,15.2,30.30,NNW,338,1.6,1.6,28,0.00,,,0.00,VWS V14.01,2013-03-27 03:54:00,
2013-03-26 23:59:00,46.2,14.9,30.30,NNW,338,1.3,1.3,28,0.00,,,0.00,VWS V14.01,2013-03-27 03:59:00,